Time,TemperatureF,DewpointF,PressureIn,WindDirection,WindDirectionDegrees,WindSpeedMPH,WindSpeedGustMPH,Humidity,HourlyPrecipIn,Conditions,Clouds,dailyrainin,SoftwareType,DateUTC
2013-03-03 00:01:00,38.0,37.0,30.16,South,190,0.0,-999.0,96,-99.99,,,-99.99,,2013-03-03 08:01:00,
2013-03-03 00:11:00,38.0,37.0,30.16,South,190,0.0,-999.0,96,-99.99,,,-99.99,,2013-03-03 08:11:00,
2013-03-03 00:21:00,38.0,37.0,30.16,South,190,0.0,-999.0,96,-99.99,,,-99.99,,2013-03-03 08:21:00,
2013-03-03 00:31:00,38.0,37.0,30.16,South,190,0.0,-999.0,96,-99.99,,,-99.99,,2013-03-03 08:31:00,
2013-03-03 00:41:00,38.0,37.0,30.16,South,190,0.0,-999.0,96,-99.99,,,-99.99,,2013-03-03 08:41:00,
2013-03-03 00:53:00,38.0,37.0,30.16,South,190,0.0,-999.0,96,-99.99,,,-99.99,,2013-03-03 08:53:00,
2013-03-03 01:01:00,37.0,36.0,30.16,South,190,0.0,-999.0,96,-99.99,,,-99.99,,2013-03-03 09:01:00,
2013-03-03 01:11:00,37.0,36.0,30.16,South,190,0.0,-999.0,96,-99.99,,,-99.99,,2013-03-03 09:11:00,
2013-03-03 01:21:00,37.0,36.0,30.16,South,190,0.0,-999.0,96,-99.99,,,-99.99,,2013-03-03 09:21:00,
2013-03-03 01:32:00,37.0,36.0,30.16,South,190,0.0,-999.0,96,-99.99,,,-99.99,,2013-03-03 09:32:00,
2013-03-03 01:41:00,37.0,36.0,30.16,South,190,0.0,-999.0,96,-99.99,,,-99.99,,2013-03-03 09:41:00,
2013-03-03 01:51:00,37.0,36.0,30.18,South,190,0.0,-999.0,96,-99.99,,,-99.99,,2013-03-03 09:51:00,
2013-03-03 02:01:00,36.0,35.0,30.18,South,190,0.0,-999.0,96,-99.99,,,-99.99,,2013-03-03 10:01:00,
2013-03-03 02:11:00,36.0,35.0,30.18,South,190,0.0,-999.0,96,-99.99,,,-99.99,,2013-03-03 10:11:00,
2013-03-03 02:21:00,36.0,35.0,30.18,South,190,0.0,-999.0,96,-99.99,,,-99.99,,2013-03-03 10:21:00,
2013-03-03 02:31:00,36.0,35.0,30.18,South,190,0.0,-999.0,96,-99.99,,,-99.99,,2013-03-03 10:31:00,
2013-03-03 02:42:00,36.0,35.0,30.18,South,190,0.0,-999.0,96,-99.99,,,-99.99,,2013-03-03 10:42:00,
2013-03-03 02:51:00,35.0,34.0,30.19,South,190,0.0,-999.0,96,-99.99,,,-99.99,,2013-03-03 10:51:00,
2013-03-03 03:01:00,35.0,34.0,30.19,South,190,0.0,-999.0,96,-99.99,,,-99.99,,2013-03-03 11:01:00,
2013-03-03 03:11:00,35.0,34.0,30.19,South,190,0.0,-999.0,96,-99.99,,,-99.99,,2013-03-03 11:11:00,
2013-03-03 03:21:00,35.0,34.0,30.19,South,190,0.0,-999.0,96,-99.99,,,-99.99,,2013-03-03 11:21:00,
2013-03-03 03:31:00,35.0,34.0,30.19,South,190,0.0,-999.0,96,-99.99,,,-99.99,,2013-03-03 11:31:00,
2013-03-03 03:42:00,35.0,34.0,30.19,South,190,0.0,-999.0,96,-99.99,,,-99.99,,2013-03-03 11:42:00,
2013-03-03 03:52:00,36.0,35.0,30.19,South,190,1.0,-999.0,96,-99.99,,,-99.99,,2013-03-03 11:52:00,
2013-03-03 04:01:00,36.0,35.0,30.20,South,190,0.0,-999.0,96,-99.99,,,-99.99,,2013-03-03 12:01:00,
2013-03-03 04:11:00,36.0,35.0,30.20,South,190,0.0,-999.0,96,-99.99,,,-99.99,,2013-03-03 12:11:00,
2013-03-03 04:21:00,35.0,34.0,30.19,South,190,0.0,-999.0,96,-99.99,,,-99.99,,2013-03-03 12:21:00,
2013-03-03 04:32:00,35.0,34.0,30.20,South,190,0.0,-999.0,96,-99.99,,,-99.99,,2013-03-03 12:32:00,
2013-03-03 04:42:00,35.0,34.0,30.20,South,190,0.0,-999.0,96,-99.99,,,-99.99,,2013-03-03 12:42:00,
2013-03-03 04:52:00,35.0,34.0,30.21,South,190,0.0,-999.0,96,-99.99,,,-99.99,,2013-03-03 12:52:00,
2013-03-03 05:01:00,35.0,34.0,30.21,South,190,0.0,-999.0,96,-99.99,,,-99.99,,2013-03-03 13:01:00,
2013-03-03 05:11:00,35.0,34.0,30.21,South,190,0.0,-999.0,96,-99.99,,,-99.99,,2013-03-03 13:11:00,
2013-03-03 05:21:00,34.0,33.0,30.22,South,190,0.0,-999.0,96,-99.99,,,-99.99,,2013-03-03 13:21:00,
2013-03-03 05:31:00,34.0,33.0,30.22,South,182,0.0,-999.0,96,-99.99,,,-99.99,,2013-03-03 13:31:00,
2013-03-03 05:41:00,34.0,33.0,30.22,South,182,0.0,-999.0,96,-99.99,,,-99.99,,2013-03-03 13:41:00,
2013-03-03 05:51:00,35.0,34.0,30.22,South,182,1.0,-999.0,96,-99.99,,,-99.99,,2013-03-03 13:51:00,
2013-03-03 06:01:00,36.0,35.0,30.22,South,183,0.0,-999.0,96,-99.99,,,-99.99,,2013-03-03 14:01:00,
2013-03-03 06:11:00,36.0,35.0,30.22,South,183,0.0,-999.0,96,-99.99,,,-99.99,,2013-03-03 14:11:00,
2013-03-03 06:21:00,36.0,35.0,30.22,SSE,160,0.0,-999.0,96,-99.99,,,-99.99,,2013-03-03 14:21:00,
2013-03-03 06:31:00,36.0,35.0,30.22,SSE,162,0.0,-999.0,96,-99.99,,,-99.99,,2013-03-03 14:31:00,
2013-03-03 06:42:00,36.0,35.0,30.22,SSE,162,0.0,-999.0,96,-99.99,,,-99.99,,2013-03-03 14:42:00,
2013-03-03 06:52:00,36.0,35.0,30.22,SSE,162,0.0,-999.0,96,-99.99,,,-99.99,,2013-03-03 14:52:00,
2013-03-03 07:01:00,36.0,35.0,30.22,SSE,162,0.0,-999.0,96,-99.99,,,-99.99,,2013-03-03 15:01:00,
2013-03-03 07:11:00,36.0,35.0,30.22,SSE,162,0.0,-999.0,96,-99.99,,,-99.99,,2013-03-03 15:11:00,
2013-03-03 07:22:00,36.0,35.0,30.23,SSE,162,0.0,-999.0,96,-99.99,,,-99.99,,2013-03-03 15:22:00,
2013-03-03 07:31:00,35.0,34.0,30.23,SSE,161,0.0,-999.0,96,-99.99,,,-99.99,,2013-03-03 15:31:00,
2013-03-03 07:42:00,35.0,34.0,30.23,SSE,161,0.0,-999.0,96,-99.99,,,-99.99,,2013-03-03 15:42:00,
2013-03-03 07:51:00,35.0,34.0,30.23,SSE,161,0.0,-999.0,96,-99.99,,,-99.99,,2013-03-03 15:51:00,
2013-03-03 08:01:00,35.0,34.0,30.23,SSE,162,0.0,-999.0,96,-99.99,,,-99.99,,2013-03-03 16:01:00,
2013-03-03 08:12:00,35.0,34.0,30.23,SSE,162,0.0,-999.0,96,-99.99,,,-99.99,,2013-03-03 16:12:00,
2013-03-03 08:21:00,35.0,34.0,30.23,SSE,161,0.0,-999.0,96,-99.99,,,-99.99,,2013-03-03 16:21:00,
2013-03-03 08:31:00,36.0,35.0,30.23,SSE,162,1.0,-999.0,96,-99.99,,,-99.99,,2013-03-03 16:31:00,
2013-03-03 08:41:00,36.0,35.0,30.23,SSE,162,1.0,-999.0,96,-99.99,,,-99.99,,2013-03-03 16:41:00,
2013-03-03 08:51:00,36.0,35.0,30.24,South,172,1.0,-999.0,96,-99.99,,,-99.99,,2013-03-03 16:51:00,
2013-03-03 09:01:00,37.0,36.0,30.24,South,172,1.0,-999.0,96,-99.99,,,-99.99,,2013-03-03 17:01:00,
2013-03-03 09:11:00,38.0,37.0,30.24,SSE,158,1.0,-999.0,96,-99.99,,,-99.99,,2013-03-03 17:11:00,
2013-03-03 09:21:00,38.0,37.0,30.24,SSE,158,1.0,-999.0,96,-99.99,,,-99.99,,2013-03-03 17:21:00,
2013-03-03 09:32:00,38.0,37.0,30.24,South,173,1.0,-999.0,96,-99.99,,,-99.99,,2013-03-03 17:32:00,
2013-03-03 09:42:00,38.0,37.0,30.24,South,173,1.0,-999.0,96,-99.99,,,-99.99,,2013-03-03 17:42:00,
2013-03-03 09:52:00,39.0,38.0,30.24,South,173,1.0,-999.0,96,-99.99,,,-99.99,,2013-03-03 17:52:00,
2013-03-03 10:01:00,39.0,38.0,30.24,South,174,0.0,-999.0,96,-99.99,,,-99.99,,2013-03-03 18:01:00,
2013-03-03 10:11:00,39.0,38.0,30.24,South,174,0.0,-999.0,96,-99.99,,,-99.99,,2013-03-03 18:11:00,
2013-03-03 10:21:00,40.0,39.0,30.23,South,184,0.0,-999.0,96,-99.99,,,-99.99,,2013-03-03 18:21:00,
2013-03-03 10:31:00,40.0,39.0,30.23,SSE,158,0.0,-999.0,95,-99.99,,,-99.99,,2013-03-03 18:31:00,
2013-03-03 10:41:00,40.0,39.0,30.23,SSE,158,0.0,-999.0,95,-99.99,,,-99.99,,2013-03-03 18:41:00,
2013-03-03 10:52:00,41.0,39.0,30.23,South,191,0.0,-999.0,93,-99.99,,,-99.99,,2013-03-03 18:52:00,
2013-03-03 11:01:00,42.0,39.0,30.23,NNE,28,0.0,-999.0,90,-99.99,,,-99.99,,2013-03-03 19:01:00,
2013-03-03 11:11:00,42.0,39.0,30.23,NNE,28,0.0,-999.0,90,-99.99,,,-99.99,,2013-03-03 19:11:00,
2013-03-03 11:21:00,43.0,40.0,30.23,SSE,156,0.0,-999.0,88,-99.99,,,-99.99,,2013-03-03 19:21:00,
2013-03-03 11:31:00,44.0,40.0,30.22,South,180,1.0,-999.0,86,-99.99,,,-99.99,,2013-03-03 19:31:00,
2013-03-03 11:42:00,44.0,40.0,30.22,South,180,1.0,-999.0,86,-99.99,,,-99.99,,2013-03-03 19:42:00,
2013-03-03 11:51:00,45.0,40.0,30.22,ENE,78,0.0,-999.0,82,-99.99,,,-99.99,,2013-03-03 19:51:00,
2013-03-03 12:01:00,45.0,39.0,30.23,NNE,14,1.0,-999.0,80,-99.99,,,-99.99,,2013-03-03 20:01:00,
2013-03-03 12:11:00,45.0,39.0,30.23,NNE,14,1.0,-999.0,80,-99.99,,,-99.99,,2013-03-03 20:11:00,
2013-03-03 12:21:00,46.0,39.0,30.23,NNE,29,1.0,-999.0,77,-99.99,,,-99.99,,2013-03-03 20:21:00,
2013-03-03 12:32:00,46.0,37.0,30.22,North,350,1.0,-999.0,72,-99.99,,,-99.99,,2013-03-03 20:32:00,
2013-03-03 12:42:00,46.0,37.0,30.22,North,350,1.0,-999.0,72,-99.99,,,-99.99,,2013-03-03 20:42:00,
2013-03-03 12:52:00,46.0,35.0,30.22,North,11,1.0,-999.0,66,-99.99,,,-99.99,,2013-03-03 20:52:00,
2013-03-03 13:01:00,47.0,35.0,30.22,North,360,2.0,-999.0,63,-99.99,,,-99.99,,2013-03-03 21:01:00,
2013-03-03 13:11:00,47.0,35.0,30.22,North,360,2.0,-999.0,63,-99.99,,,-99.99,,2013-03-03 21:11:00,
2013-03-03 13:21:00,46.0,34.0,30.23,NW,309,2.0,-999.0,63,-99.99,,,-99.99,,2013-03-03 21:21:00,
2013-03-03 13:31:00,46.0,35.0,30.22,North,350,1.0,-999.0,66,-99.99,,,-99.99,,2013-03-03 21:31:00,
2013-03-03 13:41:00,46.0,35.0,30.22,North,350,1.0,-999.0,66,-99.99,,,-99.99,,2013-03-03 21:41:00,
2013-03-03 13:52:00,47.0,36.0,30.22,SW,223,1.0,-999.0,66,-99.99,,,-99.99,,2013-03-03 21:52:00,
2013-03-03 14:01:00,47.0,34.0,30.22,West,263,2.0,-999.0,60,-99.99,,,-99.99,,2013-03-03 22:01:00,
2013-03-03 14:11:00,47.0,34.0,30.22,West,263,2.0,-999.0,60,-99.99,,,-99.99,,2013-03-03 22:11:00,
2013-03-03 14:21:00,46.0,35.0,30.22,NE,37,0.0,-999.0,64,-99.99,,,-99.99,,2013-03-03 22:21:00,
2013-03-03 14:31:00,46.0,35.0,30.22,East,96,1.0,-999.0,65,-99.99,,,-99.99,,2013-03-03 22:31:00,
2013-03-03 14:42:00,46.0,35.0,30.22,East,96,1.0,-999.0,65,-99.99,,,-99.99,,2013-03-03 22:42:00,
2013-03-03 14:52:00,47.0,36.0,30.23,WSW,251,1.0,-999.0,66,-99.99,,,-99.99,,2013-03-03 22:52:00,
2013-03-03 15:01:00,47.0,35.0,30.23,NNE,19,1.0,-999.0,62,-99.99,,,-99.99,,2013-03-03 23:01:00,
2013-03-03 15:11:00,47.0,35.0,30.23,NNE,19,1.0,-999.0,62,-99.99,,,-99.99,,2013-03-03 23:11:00,
2013-03-03 15:21:00,47.0,35.0,30.23,NNE,28,1.0,-999.0,64,-99.99,,,-99.99,,2013-03-03 23:21:00,
2013-03-03 15:31:00,47.0,35.0,30.23,ENE,65,1.0,-999.0,64,-99.99,,,-99.99,,2013-03-03 23:31:00,
2013-03-03 15:41:00,47.0,35.0,30.23,ENE,65,1.0,-999.0,64,-99.99,,,-99.99,,2013-03-03 23:41:00,
2013-03-03 15:52:00,48.0,38.0,30.24,NW,311,0.0,-999.0,67,-99.99,,,-99.99,,2013-03-03 23:52:00,
2013-03-03 16:01:00,48.0,39.0,30.24,NW,309,0.0,-999.0,72,-99.99,,,-99.99,,2013-03-04 00:01:00,
2013-03-03 16:21:00,47.0,39.0,30.24,NW,313,0.0,-999.0,73,-99.99,,,-99.99,,2013-03-04 00:21:00,
2013-03-03 16:32:00,47.0,39.0,30.24,NW,313,0.0,-999.0,74,-99.99,,,-99.99,,2013-03-04 00:32:00,
2013-03-03 16:51:00,46.0,39.0,30.24,NW,313,0.0,-999.0,76,-99.99,,,-99.99,,2013-03-04 00:51:00,
2013-03-03 17:01:00,46.0,39.0,30.24,NW,313,0.0,-999.0,77,-99.99,,,-99.99,,2013-03-04 01:01:00,
2013-03-03 17:11:00,46.0,39.0,30.24,NW,313,0.0,-999.0,77,-99.99,,,-99.99,,2013-03-04 01:11:00,
2013-03-03 17:21:00,46.0,39.0,30.24,NW,313,0.0,-999.0,77,-99.99,,,-99.99,,2013-03-04 01:21:00,
2013-03-03 17:31:00,45.0,39.0,30.24,NW,313,0.0,-999.0,78,-99.99,,,-99.99,,2013-03-04 01:31:00,
2013-03-03 17:42:00,45.0,39.0,30.24,NW,313,0.0,-999.0,78,-99.99,,,-99.99,,2013-03-04 01:42:00,
2013-03-03 17:51:00,44.0,38.0,30.24,NW,313,0.0,-999.0,80,-99.99,,,-99.99,,2013-03-04 01:51:00,
2013-03-03 18:01:00,44.0,38.0,30.24,NW,313,0.0,-999.0,80,-99.99,,,-99.99,,2013-03-04 02:01:00,
2013-03-03 18:11:00,44.0,38.0,30.24,NW,313,0.0,-999.0,80,-99.99,,,-99.99,,2013-03-04 02:11:00,
2013-03-03 18:22:00,43.0,38.0,30.25,NW,313,0.0,-999.0,81,-99.99,,,-99.99,,2013-03-04 02:22:00,
2013-03-03 18:31:00,42.0,37.0,30.25,NW,313,0.0,-999.0,82,-99.99,,,-99.99,,2013-03-04 02:31:00,
2013-03-03 18:41:00,42.0,37.0,30.25,NW,313,0.0,-999.0,82,-99.99,,,-99.99,,2013-03-04 02:41:00,
2013-03-03 18:52:00,41.0,36.0,30.26,NW,313,0.0,-999.0,83,-99.99,,,-99.99,,2013-03-04 02:52:00,
2013-03-03 19:01:00,41.0,37.0,30.25,NW,313,0.0,-999.0,85,-99.99,,,-99.99,,2013-03-04 03:01:00,
2013-03-03 19:11:00,41.0,37.0,30.25,NW,313,0.0,-999.0,85,-99.99,,,-99.99,,2013-03-04 03:11:00,
2013-03-03 19:21:00,40.0,36.0,30.26,NW,313,0.0,-999.0,85,-99.99,,,-99.99,,2013-03-04 03:21:00,
2013-03-03 19:31:00,40.0,36.0,30.26,NW,313,0.0,-999.0,86,-99.99,,,-99.99,,2013-03-04 03:31:00,
2013-03-03 19:41:00,39.0,35.0,30.26,NW,313,0.0,-999.0,87,-99.99,,,-99.99,,2013-03-04 03:41:00,
2013-03-03 19:52:00,39.0,35.0,30.26,NW,313,0.0,-999.0,87,-99.99,,,-99.99,,2013-03-04 03:52:00,
2013-03-03 20:01:00,39.0,36.0,30.26,NW,313,0.0,-999.0,88,-99.99,,,-99.99,,2013-03-04 04:01:00,
2013-03-03 20:11:00,39.0,36.0,30.26,NW,313,0.0,-999.0,88,-99.99,,,-99.99,,2013-03-04 04:11:00,
2013-03-03 20:21:00,39.0,36.0,30.26,NW,313,0.0,-999.0,89,-99.99,,,-99.99,,2013-03-04 04:21:00,
2013-03-03 20:31:00,39.0,36.0,30.26,NW,313,0.0,-999.0,89,-99.99,,,-99.99,,2013-03-04 04:31:00,
2013-03-03 20:42:00,39.0,36.0,30.26,NW,313,0.0,-999.0,89,-99.99,,,-99.99,,2013-03-04 04:42:00,
2013-03-03 20:51:00,38.0,35.0,30.26,NW,313,0.0,-999.0,89,-99.99,,,-99.99,,2013-03-04 04:51:00,
2013-03-03 21:01:00,37.0,34.0,30.26,NW,313,0.0,-999.0,90,-99.99,,,-99.99,,2013-03-04 05:01:00,
2013-03-03 21:11:00,37.0,34.0,30.26,NW,313,0.0,-999.0,90,-99.99,,,-99.99,,2013-03-04 05:11:00,
2013-03-03 21:22:00,37.0,34.0,30.26,NW,313,0.0,-999.0,90,-99.99,,,-99.99,,2013-03-04 05:22:00,
2013-03-03 21:31:00,37.0,35.0,30.26,NW,313,0.0,-999.0,91,-99.99,,,-99.99,,2013-03-04 05:31:00,
2013-03-03 21:42:00,37.0,35.0,30.26,NW,313,0.0,-999.0,91,-99.99,,,-99.99,,2013-03-04 05:42:00,
2013-03-03 21:52:00,36.0,34.0,30.26,NW,313,0.0,-999.0,92,-99.99,,,-99.99,,2013-03-04 05:52:00,
2013-03-03 22:01:00,36.0,34.0,30.27,NW,313,0.0,-999.0,92,-99.99,,,-99.99,,2013-03-04 06:01:00,
2013-03-03 22:11:00,36.0,34.0,30.27,NW,313,0.0,-999.0,92,-99.99,,,-99.99,,2013-03-04 06:11:00,
2013-03-03 22:21:00,36.0,34.0,30.27,NW,313,0.0,-999.0,93,-99.99,,,-99.99,,2013-03-04 06:21:00,
2013-03-03 22:31:00,35.0,33.0,30.27,NW,313,0.0,-999.0,93,-99.99,,,-99.99,,2013-03-04 06:31:00,
2013-03-03 22:42:00,35.0,33.0,30.27,NW,313,0.0,-999.0,93,-99.99,,,-99.99,,2013-03-04 06:42:00,
2013-03-03 22:51:00,35.0,33.0,30.27,NW,313,0.0,-999.0,93,-99.99,,,-99.99,,2013-03-04 06:51:00,
2013-03-03 23:01:00,35.0,33.0,30.27,NW,313,0.0,-999.0,93,-99.99,,,-99.99,,2013-03-04 07:01:00,
2013-03-03 23:11:00,35.0,33.0,30.27,NW,313,0.0,-999.0,93,-99.99,,,-99.99,,2013-03-04 07:11:00,
2013-03-03 23:21:00,35.0,33.0,30.27,NW,313,0.0,-999.0,93,-99.99,,,-99.99,,2013-03-04 07:21:00,
2013-03-03 23:32:00,34.0,32.0,30.27,NW,313,0.0,-999.0,93,-99.99,,,-99.99,,2013-03-04 07:32:00,
2013-03-03 23:41:00,34.0,32.0,30.27,NW,313,0.0,-999.0,93,-99.99,,,-99.99,,2013-03-04 07:41:00,
2013-03-03 23:51:00,34.0,32.0,30.27,NW,313,0.0,-999.0,93,-99.99,,,-99.99,,2013-03-04 07:51:00,